Weather Roundup
Issued by NWS Corpus Christi, TX

Home | Current Version | Previous Version | Text Only | Print | Product List | Glossary On
Versions: 1 2 3 4 5 6 7 8 9 10 11 12 13 14 15 16 17 18 19 20 21 22 23 24 25 26 27 28 29 30 31 32 33 34 35 36 37 38 39 40 41 42 43 44 45 46 47 48 49 50
000
ASUS44 KCRP 012310
HRRCRP

SOUTH TEXAS REGIONAL WEATHER ROUNDUP
NATIONAL WEATHER SERVICE CORPUS CHRISTI TX
500 PM CST SUN MAR 01 2015


TXZ229>244-020000-
...CORPUS CHRISTI AREA OBSERVATIONS...

CITY           SKY/WX    TMP DP  RH WIND       PRES   REMARKS
CORPUS CHRISTI DRIZZLE   51  50  96 N10       30.16S FOG
NAS CORPUS CHR FOG       52  52 100 N13       30.15S VSB 1
ROCKPORT       CLOUDY    55  52  89 NW9       30.16R FOG
KINGSVILLE NAS CLOUDY    52  51  97 N10       30.15F
ALICE          NOT AVBL
FALFURRIAS     CLOUDY    53  51  92 N5        30.15S
$$

...VICTORIA AREA OBSERVATIONS...

CITY           SKY/WX    TMP DP  RH WIND       PRES   REMARKS
VICTORIA       CLOUDY    50  49  96 N12       30.18S FOG
BEEVILLE       DRIZZLE   47  47 100 N7        30.17S
PLEASANTON     CLOUDY    46  45  93 NE6       30.20S
SAN ANTONIO    LGT RAIN  47  45  93 N8        30.20S FOG
$$

...LAREDO AREA OBSERVATIONS...

CITY           SKY/WX    TMP DP  RH WIND       PRES   REMARKS
LAREDO         CLOUDY    54  49  83 NW6       30.18S
COTULLA        CLOUDY    50  47  89 NE6       30.18S FOG
DEL RIO        CLOUDY    52  46  80 NW6       30.18R
MCALLEN        MOSUNNY   63  54  72 NE8       30.13S
HEBBRONVILLE   CLOUDY   N/A N/A N/A N7        30.15S HAZE
$$

...OTHER TEXAS OBSERVATIONS...

CITY           SKY/WX    TMP DP  RH WIND       PRES   REMARKS
BROWNSVILLE    CLOUDY    59  56  89 N7        30.13S
HOUSTON        FOG       57  56  96 N7        30.19R VSB 1/4
COL. STATION   FOG       43  43 100 N13       30.24R VSB 1/2
AUSTIN         CLOUDY    42  41  96 N15       30.24S FOG
WACO           CLOUDY    39  37  92 N13       30.28F WCI  31
FORT WORTH     CLOUDY    36  34  92 N12       30.32S WCI  28
WICHITA FALLS  CLOUDY    35  31  85 N12       30.35R WCI  27
LUBBOCK        CLOUDY    32  28  85 N6        30.23R
EL PASO        PTSUNNY   74  14  10 SW13      30.02S
$$

...MARINE OBSERVATIONS...

STATION/POSITION TIME  SKY/WX   TEMP    WIND        PRES    VSBY  WAVE   SWELL
                                AIR SEA DIR/SP/G                  HT/PER HT/PER
                 (UTC)          (F)     (DEG/KT/KT) (MB)    (MI)  (FT/S) (FT/S)
PORT ARANSAS     2300            54 55  330/  8/  9 1021.2S
BUOY 90 E PORT A 2300            69 68   90/  4/  4 1020.6F         5/ 8   5/ 8
BUOY 45 SE BAFFI 2300            60 65  350/ 14/ 16 1019.9F         5/ 8   5/ 8
BUOY 200 E PT IS 2300            72 70  130/ 12/ 14 1020.6S         4/ 7   3/ 7
BUOY 15 E GALVES 2300            63 61   70/  4/  6 1020.9F         3/ 6   3/ 6
$$



USA.gov is the U.S. government's official web portal to all federal, state and local government web resources and services.